EW9168 Weather Reports


Display with metric or nautical units.
time (UTC)temp
F
wind
direction
speed
MPH
gust
MPH
rain 1hr
in
rain 24hr
in
rain mn
in
humidity
%
barometer
mb
20260508071041 32 0.0 0.0 0.00 0.01 0.00 87 1007.2
20260508070016 33 0.0 0.0 0.00 0.01 0.00 85 1007.3
20260508065020 33 0.0 0.0 0.00 0.01 0.00 84 1007.2
20260508064101 33 0.0 0.0 0.00 0.01 0.00 85 1007.2
20260508063020 33 0.0 0.0 0.00 0.01 0.00 85 1007.2
20260508062020 33 0.0 0.0 0.00 0.01 0.00 86 1007.2
20260508061018 33 0.0 0.0 0.00 0.01 0.00 84 1007.3
20260508060020 34 0.0 0.0 0.00 0.01 0.00 84 1007.2
20260508055016 34 0.0 0.0 0.00 0.01 0.00 84 1007.5
20260508054041 34 0.0 0.0 0.00 0.01 0.00 82 1007.7
20260508053041 35 0.0 0.0 0.00 0.01 0.00 83 1007.7
20260508052020 35 0.0 0.0 0.00 0.01 0.00 82 1007.8
20260508051020 35 0.0 0.0 0.00 0.01 0.00 80 1007.9
20260508050018 35 0.0 0.0 0.00 0.01 0.00 79 1007.9
20260508045020 35 0.0 0.0 0.00 0.01 0.00 80 1007.9
20260508044037 36 0.0 0.0 0.00 0.01 0.00 80 1008.0
20260508043020 36 0.0 0.0 0.00 0.01 0.00 79 1007.9
20260508042041 37 0.0 0.0 0.00 0.01 0.00 79 1008.0
20260508041021 37 0.0 0.0 0.00 0.01 0.00 78 1008.0
20260508040020 38 0.0 0.0 0.00 0.01 0.01 77 1008.0
20260508035041 38 0.0 0.0 0.00 0.01 0.01 77 1007.9
20260508034016 39 0.0 0.0 0.00 0.01 0.01 74 1007.9
20260508033101 39 0.0 0.0 0.00 0.01 0.01 73 1007.9
20260508032040 40 0.0 0.0 0.00 0.01 0.01 73 1007.9
20260508031025 40 0.0 0.0 0.00 0.01 0.01 73 1007.8
20260508030021 41 0.0 2.0 0.00 0.01 0.01 71 1007.8
20260508025019 41 0.0 0.0 0.00 0.01 0.01 69 1007.8
20260508024020 41 0.0 0.0 0.00 0.01 0.01 66 1007.8
20260508023015 42 0.0 0.0 0.00 0.02 0.01 69 1007.7
20260508022019 42 0.0 0.0 0.00 0.02 0.01 67 1007.6
20260508021020 43 0.0 0.0 0.00 0.03 0.01 67 1007.4
20260508020020 44 0.0 0.0 0.00 0.03 0.01 65 1007.4
20260508015020 44 0.0 0.0 0.00 0.04 0.01 67 1007.4
20260508014020 45 0.0 0.0 0.00 0.04 0.01 63 1007.5
20260508013017 45 0.0 0.0 0.00 0.05 0.01 67 1007.4
20260508012016 45 0.0 0.0 0.00 0.06 0.01 59 1007.4
20260508011020 46 0.0 0.0 0.00 0.07 0.01 61 1007.3
20260508010020 46 0.0 0.0 0.00 0.07 0.01 57 1007.2
20260508005020 47 0.0 0.0 0.00 0.08 0.01 56 1007.1
20260508004019 48 0.0 0.0 0.00 0.09 0.01 55 1006.9
20260508003040 48 0.0 0.0 0.00 0.10 0.01 53 1006.6
20260508002016 49 0.0 1.0 0.00 0.11 0.01 52 1006.6
20260508001020 49 0.0 0.0 0.00 0.11 0.01 51 1006.5
20260508000020 50 0.0 1.0 0.00 0.11 0.01 51 1006.5
20260507235020 50 0.0 5.0 0.00 0.11 0.01 52 1006.5
20260507234040 51 0.0 3.0 0.00 0.11 0.01 49 1006.3
20260507233018 52 0.0 4.0 0.00 0.11 0.01 47 1006.0
20260507232020 52 315 1.0 4.0 0.00 0.11 0.01 47 1005.8
20260507231017 53 0.0 3.0 0.00 0.11 0.01 46 1005.8
20260507230020 53 338 1.0 5.0 0.00 0.11 0.01 46 1005.7
20260507225020 53 0.0 1.0 0.00 0.11 0.01 46 1005.6
20260507224019 54 0.0 3.0 0.00 0.11 0.01 44 1005.4
20260507223020 54 293 1.0 4.0 0.00 0.11 0.01 46 1005.3
20260507222019 54 293 1.0 5.0 0.00 0.11 0.01 44 1005.3
20260507221019 55 293 1.0 3.0 0.00 0.11 0.01 44 1005.2
20260507220016 55 0.0 3.0 0.00 0.11 0.01 44 1005.2
20260507215041 55 293 1.0 5.0 0.00 0.11 0.01 42 1005.3
20260507214020 55 293 1.0 7.0 0.00 0.12 0.01 42 1005.2
20260507213020 55 315 1.0 5.0 0.00 0.12 0.01 42 1005.2
20260507212020 56 293 1.0 5.0 0.00 0.12 0.01 42 1005.2
20260507211020 58 270 2.0 9.0 0.00 0.14 0.01 38 1005.2
20260507210020 58 270 3.0 10.0 0.00 0.16 0.01 42 1005.2
20260507205017 58 293 2.0 7.0 0.00 0.17 0.01 42 1005.1
20260507204020 59 270 3.0 9.0 0.00 0.19 0.01 37 1005.1
20260507203020 58 270 3.0 10.0 0.00 0.22 0.01 44 1005.1
20260507202100 58 270 2.0 8.0 0.00 0.23 0.01 39 1005.1
20260507201041 58 270 3.0 9.0 0.00 0.23 0.01 41 1005.2
20260507200020 58 293 3.0 10.0 0.00 0.23 0.01 41 1005.2
20260507195022 58 270 4.0 8.0 0.00 0.24 0.01 44 1005.1
20260507194015 58 270 3.0 10.0 0.00 0.24 0.01 42 1005.4
20260507193020 57 270 3.0 8.0 0.00 0.24 0.01 45 1005.4
20260507192020 57 270 1.0 4.0 0.00 0.24 0.01 50 1005.5
20260507191040 58 293 2.0 11.0 0.00 0.24 0.01 47 1005.6
20260507190039 58 270 4.0 11.0 0.00 0.24 0.01 43 1005.7
20260507185018 58 270 3.0 9.0 0.00 0.25 0.01 40 1005.8
20260507184022 58 270 4.0 11.0 0.00 0.25 0.01 42 1006.0
20260507183020 57 270 4.0 10.0 0.00 0.26 0.01 45 1005.8
20260507182040 57 270 3.0 8.0 0.00 0.29 0.01 45 1006.0
20260507181020 57 315 2.0 10.0 0.00 0.41 0.01 46 1006.0
20260507180020 56 270 2.0 5.0 0.00 0.54 0.01 51 1006.1
20260507175019 56 293 2.0 7.0 0.00 0.63 0.01 51 1006.1
20260507174020 56 270 2.0 8.0 0.00 0.66 0.01 52 1006.2
20260507173016 56 293 3.0 8.0 0.00 0.69 0.01 52 1006.3
20260507172100 56 293 4.0 9.0 0.00 0.71 0.01 54 1006.4
20260507171020 57 293 4.0 8.0 0.00 0.72 0.01 51 1006.5
20260507170040 57 270 3.0 9.0 0.00 0.73 0.01 55 1006.7
20260507165022 56 248 3.0 14.0 0.00 0.73 0.01 53 1006.7
20260507164018 56 315 2.0 6.0 0.00 0.75 0.01 57 1006.9
20260507163024 55 315 2.0 6.0 0.00 0.75 0.01 60 1006.9
20260507162021 55 293 1.0 8.0 0.00 0.76 0.01 59 1007.1
20260507161102 55 270 2.0 8.0 0.00 0.76 0.01 60 1007.2
20260507160021 55 248 2.0 6.0 0.00 0.77 0.01 63 1007.3
20260507155022 54 293 3.0 6.0 0.00 0.77 0.01 63 1007.5
20260507154022 54 293 3.0 6.0 0.00 0.77 0.01 67 1007.4
20260507153018 54 270 3.0 8.0 0.00 0.77 0.01 68 1007.4
20260507152022 54 270 2.0 6.0 0.00 0.78 0.01 66 1007.4
20260507151103 53 315 2.0 5.0 0.00 0.78 0.01 68 1007.4
20260507150023 52 293 2.0 8.0 0.00 0.79 0.01 70 1007.4
20260507145021 54 270 1.0 6.0 0.00 0.79 0.01 68 1007.4
20260507144022 53 270 2.0 6.0 0.00 0.80 0.01 73 1007.4
20260507143018 52 270 2.0 7.0 0.00 0.80 0.01 78 1007.4
20260507142018 51 270 2.0 5.0 0.00 0.80 0.01 77 1007.3
20260507141022 50 270 2.0 6.0 0.00 0.80 0.01 78 1007.3
20260507140022 49 293 1.0 3.0 0.00 0.80 0.01 86 1007.3
20260507135022 49 270 1.0 3.0 0.00 0.80 0.01 84 1007.4
20260507134022 50 203 1.0 7.0 0.00 0.80 0.01 83 1007.3
20260507133022 49 203 1.0 7.0 0.00 0.80 0.01 85 1007.3
20260507132038 49 248 1.0 8.0 0.00 0.80 0.01 89 1007.2
20260507131019 48 0.0 3.0 0.00 0.80 0.01 92 1007.4
20260507130022 48 180 1.0 4.0 0.00 0.80 0.01 90 1007.4
20260507125021 46 0.0 1.0 0.00 0.80 0.01 95 1007.3
20260507124043 46 0.0 0.0 0.00 0.80 0.01 94 1007.3
20260507123020 46 0.0 2.0 0.00 0.80 0.01 97 1007.3
20260507122042 45 0.0 0.0 0.00 0.80 0.01 99 1007.2
20260507121018 44 0.0 0.0 0.00 0.80 0.01 99 1007.3
20260507120042 44 0.0 0.0 0.00 0.80 0.01 99 1007.1
20260507115021 44 0.0 0.0 0.00 0.80 0.01 99 1007.1
20260507114022 43 0.0 0.0 0.00 0.80 0.01 99 1007.1
20260507113023 43 0.0 0.0 0.00 0.80 0.01 99 1007.2
20260507112022 43 0.0 0.0 0.00 0.80 0.01 99 1007.1
20260507111021 42 0.0 0.0 0.00 0.80 0.01 99 1007.1
20260507110018 41 0.0 0.0 0.00 0.80 0.01 99 1007.1
20260507105021 39 0.0 0.0 0.00 0.80 0.01 99 1007.0
20260507104021 38 0.0 0.0 0.00 0.80 0.01 98 1006.9
20260507103102 38 0.0 0.0 0.00 0.80 0.01 98 1006.9
20260507102022 38 0.0 0.0 0.00 0.80 0.01 98 1006.9
20260507101022 38 0.0 0.0 0.00 0.80 0.01 98 1006.7
20260507100022 38 0.0 0.0 0.00 0.80 0.01 98 1006.9
20260507095017 38 0.0 0.0 0.00 0.80 0.01 98 1007.0
20260507094021 38 0.0 0.0 0.00 0.80 0.01 98 1007.0
20260507093023 38 0.0 0.0 0.01 0.80 0.01 98 1007.0
20260507092022 38 0.0 0.0 0.01 0.80 0.01 98 1007.3
20260507091021 39 0.0 0.0 0.01 0.80 0.01 97 1007.4
20260507090022 39 0.0 0.0 0.01 0.80 0.01 97 1007.3
20260507085022 39 0.0 0.0 0.01 0.80 0.01 97 1007.2
20260507084018 40 0.0 0.0 0.01 0.80 0.01 97 1007.3
20260507083022 40 0.0 0.0 0.00 0.79 0.00 97 1007.3
20260507082022 40 0.0 0.0 0.00 0.79 0.00 97 1007.4
20260507081043 41 0.0 0.0 0.00 0.79 0.00 97 1007.5
20260507080022 41 0.0 0.0 0.00 0.79 0.00 97 1007.2
20260507075021 42 0.0 0.0 0.00 0.79 0.00 97 1007.1
20260507074022 42 0.0 0.0 0.00 0.79 0.00 97 1007.0
20260507073018 42 0.0 0.0 0.00 0.79 0.00 97 1006.8
20260507072022 43 0.0 0.0 0.00 0.79 0.00 98 1006.8